• In Russia
  • List of Countries
  • For 7 days
  • Water Temperature
  • Satellite Maps
  • Weather Map
  • Weather Widgets
  • user-avatar
    Login

    Hourly Weather Kommunarskiy

    Today, 23 September, Sunday

    Time Temperature Precipitation Wind Pressure Humidity
    00:00 +18°C° 0 mm 1 mps 760 mmHg 87%
    01:00 +16°C° 0 mm 1 mps 760 mmHg 88%
    02:00 +16°C° 0 mm 1 mps 760 mmHg 88%
    03:00 +16°C° 0 mm 1 mps 760 mmHg 89%
    04:00 +16°C° 0 mm 1 mps 760 mmHg 89%
    05:00 +15°C° 0 mm 1 mps 760 mmHg 90%
    06:00 +15°C° 0 mm 2 mps 760 mmHg 90%
    07:00 +17°C° 0 mm 2 mps 760 mmHg 83%
    08:00 +19°C° 0 mm 2 mps 760 mmHg 77%
    09:00 +21°C° 0 mm 3 mps 759 mmHg 70%
    10:00 +22°C° 0 mm 3 mps 759 mmHg 66%
    11:00 +23°C° 0 mm 4 mps 759 mmHg 61%
    12:00 +25°C° 0 mm 4 mps 759 mmHg 56%
    13:00 +25°C° 0 mm 4 mps 758 mmHg 56%
    14:00 +25°C° 0 mm 4 mps 758 mmHg 55%
    15:00 +25°C° 0 mm 4 mps 758 mmHg 55%
    16:00 +23°C° 0 mm 4 mps 757 mmHg 60%
    17:00 +21°C° 0 mm 3 mps 757 mmHg 64%
    18:00 +20°C° 0 mm 3 mps 757 mmHg 69%
    19:00 +19°C° 0 mm 3 mps 757 mmHg 67%
    20:00 +19°C° 0 mm 3 mps 756 mmHg 65%
    21:00 +18°C° 0 mm 4 mps 756 mmHg 63%
    22:00 +18°C° 0 mm 4 mps 756 mmHg 59%
    23:00 +17°C° 0 mm 4 mps 755 mmHg 55%

    Tomorrow, 24 September, Monday

    Time Temperature Precipitation Wind Pressure Humidity
    00:00 +15°C° 0 mm 4 mps 755 mmHg 50%
    01:00 +15°C° 0 mm 4 mps 755 mmHg 47%
    02:00 +15°C° 0 mm 4 mps 754 mmHg 45%
    03:00 +14°C° 0 mm 5 mps 754 mmHg 42%
    04:00 +14°C° 0 mm 5 mps 754 mmHg 43%
    05:00 +14°C° 0 mm 5 mps 753 mmHg 45%
    06:00 +14°C° 0 mm 6 mps 753 mmHg 46%
    07:00 +15°C° 0 mm 6 mps 753 mmHg 47%
    08:00 +16°C° 0 mm 6 mps 753 mmHg 48%
    09:00 +17°C° 0 mm 6 mps 753 mmHg 49%
    10:00 +16°C° 0.4 mm 6 mps 753 mmHg 58%
    11:00 +15°C° 0.4 mm 5 mps 753 mmHg 67%
    12:00 +14°C° 0.4 mm 5 mps 753 mmHg 76%
    13:00 +14°C° 0.2 mm 5 mps 754 mmHg 77%
    14:00 +13°C° 0.2 mm 5 mps 754 mmHg 79%
    15:00 +13°C° 0.2 mm 5 mps 754 mmHg 80%
    16:00 +12°C° 0 mm 4 mps 755 mmHg 80%
    17:00 +11°C° 0 mm 3 mps 755 mmHg 81%
    18:00 +10°C° 0 mm 2 mps 755 mmHg 81%
    19:00 +10°C° 0 mm 2 mps 756 mmHg 83%
    20:00 +9°C° 0 mm 2 mps 756 mmHg 84%
    21:00 +10°C° 0 mm 1 mps 756 mmHg 86%
    22:00 +10°C° 0 mm 1 mps 756 mmHg 86%
    23:00 +9°C° 0 mm 1 mps 756 mmHg 87%

    Day after tomorrow, 25 September, Tuesday

    Time Temperature Precipitation Wind Pressure Humidity
    00:00 +9°C° 0 mm 1 mps 756 mmHg 87%
    01:00 +9°C° 0 mm 1 mps 756 mmHg 88%
    02:00 +9°C° 0 mm 1 mps 756 mmHg 88%
    03:00 +9°C° 0 mm 1 mps 756 mmHg 88%
    04:00 +8°C° 0 mm 2 mps 756 mmHg 87%
    05:00 +8°C° 0 mm 2 mps 755 mmHg 85%
    06:00 +9°C° 0 mm 3 mps 755 mmHg 84%
    07:00 +10°C° 0 mm 4 mps 755 mmHg 79%
    08:00 +11°C° 0 mm 4 mps 754 mmHg 74%
    09:00 +12°C° 0 mm 5 mps 754 mmHg 70%
    10:00 +13°C° 0 mm 6 mps 754 mmHg 66%
    11:00 +14°C° 0 mm 6 mps 753 mmHg 62%
    12:00 +15°C° 0 mm 7 mps 753 mmHg 59%
    13:00 +15°C° 0.2 mm 6 mps 752 mmHg 59%
    14:00 +15°C° 0.2 mm 6 mps 752 mmHg 60%
    15:00 +15°C° 0.2 mm 6 mps 752 mmHg 61%
    16:00 +15°C° 0 mm 6 mps 751 mmHg 60%
    17:00 +16°C° 0 mm 6 mps 751 mmHg 59%
    18:00 +16°C° 0 mm 6 mps 751 mmHg 58%
    19:00 +16°C° 0.4 mm 6 mps 751 mmHg 64%
    20:00 +15°C° 0.4 mm 6 mps 751 mmHg 70%
    21:00 +15°C° 0.4 mm 6 mps 752 mmHg 76%
    22:00 +13°C° 0.6 mm 5 mps 752 mmHg 79%
    23:00 +12°C° 0.6 mm 4 mps 753 mmHg 83%

    26 September, Wednesday

    Time Temperature Precipitation Wind Pressure Humidity
    00:00 +11°C° 0.6 mm 3 mps 753 mmHg 86%
    01:00 +11°C° 0 mm 3 mps 754 mmHg 85%
    02:00 +10°C° 0 mm 3 mps 754 mmHg 84%
    03:00 +10°C° 0 mm 3 mps 755 mmHg 84%
    04:00 +9°C° 0 mm 3 mps 755 mmHg 85%
    05:00 +9°C° 0 mm 3 mps 756 mmHg 87%
    06:00 +8°C° 0 mm 3 mps 756 mmHg 89%
    07:00 +9°C° 0 mm 3 mps 757 mmHg 83%
    08:00 +10°C° 0 mm 4 mps 757 mmHg 77%
    09:00 +11°C° 0 mm 4 mps 758 mmHg 71%
    10:00 +11°C° 0 mm 4 mps 758 mmHg 69%
    11:00 +11°C° 0 mm 4 mps 758 mmHg 67%
    12:00 +12°C° 0 mm 4 mps 759 mmHg 64%
    13:00 +12°C° 0 mm 4 mps 759 mmHg 63%
    14:00 +12°C° 0 mm 4 mps 759 mmHg 63%
    15:00 +12°C° 0 mm 4 mps 759 mmHg 62%
    16:00 +11°C° 0 mm 3 mps 760 mmHg 64%
    17:00 +11°C° 0 mm 3 mps 760 mmHg 67%
    18:00 +10°C° 0 mm 2 mps 760 mmHg 69%
    19:00 +9°C° 0 mm 2 mps 760 mmHg 71%
    20:00 +9°C° 0 mm 2 mps 761 mmHg 73%
    21:00 +8°C° 0 mm 2 mps 761 mmHg 75%
    22:00 +8°C° 0 mm 2 mps 761 mmHg 78%
    23:00 +8°C° 0 mm 2 mps 761 mmHg 81%

    27 September, Thursday

    Time Temperature Precipitation Wind Pressure Humidity
    00:00 +7°C° 0 mm 2 mps 761 mmHg 84%
    01:00 +7°C° 0 mm 2 mps 761 mmHg 87%
    02:00 +6°C° 0 mm 2 mps 761 mmHg 90%
    03:00 +6°C° 0 mm 2 mps 761 mmHg 93%
    04:00 +5°C° 0 mm 2 mps 761 mmHg 94%
    05:00 +5°C° 0 mm 2 mps 761 mmHg 94%
    06:00 +5°C° 0 mm 2 mps 761 mmHg 94%
    07:00 +5°C° 0 mm 3 mps 761 mmHg 87%
    08:00 +8°C° 0 mm 3 mps 761 mmHg 79%
    09:00 +8°C° 0 mm 4 mps 760 mmHg 71%
    10:00 +9°C° 0 mm 5 mps 760 mmHg 67%
    11:00 +10°C° 0 mm 5 mps 759 mmHg 62%
    12:00 +11°C° 0 mm 6 mps 759 mmHg 58%
    13:00 +11°C° 0 mm 6 mps 758 mmHg 57%
    14:00 +11°C° 0 mm 6 mps 757 mmHg 56%
    15:00 +11°C° 0 mm 7 mps 757 mmHg 55%
    16:00 +10°C° 0 mm 6 mps 756 mmHg 55%
    17:00 +10°C° 0 mm 6 mps 756 mmHg 55%
    18:00 +9°C° 0 mm 5 mps 755 mmHg 56%
    19:00 +9°C° 0 mm 6 mps 755 mmHg 53%
    20:00 +9°C° 0 mm 6 mps 755 mmHg 50%
    21:00 +8°C° 0 mm 7 mps 754 mmHg 48%
    22:00 +8°C° 0.4 mm 7 mps 754 mmHg 54%
    23:00 +6°C° 0.4 mm 7 mps 753 mmHg 61%

    28 September, Friday

    Time Temperature Precipitation Wind Pressure Humidity
    00:00 +6°C° 0.4 mm 8 mps 752 mmHg 68%
    01:00 +6°C° 0.5 mm 8 mps 752 mmHg 72%
    02:00 +5°C° 0.5 mm 7 mps 752 mmHg 76%
    03:00 +5°C° 0.5 mm 7 mps 751 mmHg 80%
    04:00 +5°C° 0 mm 7 mps 751 mmHg 81%
    05:00 +7°C° 0 mm 6 mps 751 mmHg 82%
    06:00 +7°C° 0 mm 6 mps 752 mmHg 84%
    07:00 +8°C° 0 mm 6 mps 752 mmHg 79%
    08:00 +8°C° 0 mm 7 mps 752 mmHg 75%
    09:00 +9°C° 0 mm 7 mps 752 mmHg 71%
    10:00 +10°C° 0.1 mm 7 mps 752 mmHg 67%
    11:00 +10°C° 0.1 mm 7 mps 752 mmHg 62%
    12:00 +11°C° 0.1 mm 8 mps 752 mmHg 58%
    13:00 +11°C° 0.1 mm 7 mps 753 mmHg 56%
    14:00 +11°C° 0.1 mm 7 mps 753 mmHg 53%
    15:00 +12°C° 0.1 mm 7 mps 753 mmHg 51%
    16:00 +11°C° 0 mm 6 mps 753 mmHg 55%
    17:00 +9°C° 0 mm 5 mps 753 mmHg 59%
    18:00 +9°C° 0 mm 3 mps 753 mmHg 63%
    19:00 +8°C° 0 mm 4 mps 753 mmHg 64%
    20:00 +8°C° 0 mm 4 mps 753 mmHg 65%
    21:00 +8°C° 0 mm 4 mps 753 mmHg 65%
    22:00 +8°C° 0.6 mm 4 mps 752 mmHg 71%
    23:00 +8°C° 0.6 mm 4 mps 752 mmHg 76%
    Show more